Location: Roma
(41.9028°N, 12.4964°E)
Time: 00:00:34
(UTC+01:00)

ISS - Visible Passes

Search period start: 22 January 2020 00:00
Search period end: 01 February 2020 00:00
Orbit: 415 x 421 km, 51.6° (Epoch: 22 January)

Date Brightness Start Highest point End Pass type
(mag) Time Alt. Az. Time Alt. Az. Time Alt. Az.
22 Jan -3.8 18:23:20 10° SW 18:26:41 74° SE 18:28:18 28° ENE visible
22 Jan -0.3 20:00:59 10° WNW 20:01:14 11° WNW 20:01:14 11° WNW visible
23 Jan -2.2 19:12:35 10° W 19:15:23 30° NNW 19:15:23 30° NNW visible
24 Jan -2.9 18:24:17 10° WSW 18:27:30 43° NNW 18:29:28 20° NE visible
25 Jan -1.6 19:14:09 10° WNW 19:16:26 19° NNW 19:16:26 19° NNW visible
26 Jan -2.0 18:25:41 10° WNW 18:28:29 24° NNW 18:30:25 15° NNE visible
27 Jan -1.3 19:15:41 10° NW 19:17:17 15° NNW 19:17:17 15° NNW visible
28 Jan -1.6 18:27:14 10° NW 18:29:33 17° N 18:31:13 13° NNE visible
29 Jan -1.3 19:16:46 10° NW 19:18:04 15° NNW 19:18:04 15° NNW visible
30 Jan -1.6 18:28:33 10° NW 18:30:40 15° N 18:31:59 13° NNE visible
31 Jan -1.5 19:17:23 10° NW 19:18:51 18° NNW 19:18:51 18° NNW visible
